Location: Newark
(54.2500°N, 9.1833°E)
Time: 13:53:21
(UTC+00:00)

Vanguard 3 - Pass Details

Date: 15 December 2019
Orbit: 507 x 3263 km, 33.4° (Epoch: 21 January)

Event Time Altitude Azimuth Distance (km) Brightness Sun altitude
Rises 06:38:12 0° 213° (SSW) 3,568 10.4 -7.9°
Reaches altitude 10° 06:41:35 10° 191° (S) 3,013 10.3 -7.4°
Maximum altitude 06:45:53 16° 156° (SSE) 3,070 11.0 -6.9°
Drops below altitude 10° 06:51:30 10° 124° (SE) 4,157 12.6 -6.2°
Sets 06:57:39 0° 107° (ESE) 5,792 13.3 -5.4°
